Regional Weather Roundup
Issued by NWS

Home | Current Version | Previous Version | Text Only | Print | Product List | Glossary On
Versions: 1 2 3 4 5 6 7 8 9 10 11 12 13 14 15 16 17 18 19 20 21 22 23 24 25 26 27 28 29 30 31 32 33 34 35 36 37 38 39 40 41 42 43 44 45 46 47 48 49 50
000
ASUS43 KTOP 051908
RWRKS

WEATHER ROUNDUP FOR KANSAS
NATIONAL WEATHER SERVICE GOODLAND KS
100 PM CST FRI FEB 05 2016

NOTE:  "FAIR" INDICATES FEW OR NO CLOUDS BELOW 12,000 FEET WITH NO
SIGNIFICANT WEATHER AND/OR OBSTRUCTIONS TO VISIBILITY.

KSZ001>006-013>018-027>032-041>047-052000-
NORTHWEST KANSAS

CITY           SKY/WX    TMP DP  RH WIND       PRES   REMARKS
GOODLAND       SUNNY     34  22  61 NW16      30.30F WCI  24
HAYS           PTSUNNY   34  19  55 W5        30.31F
HILL CITY        N/A     37  28  70 SW12      30.29F WCI  29
RUSSELL        PTSUNNY   32  22  66 SW7       30.30F
$$

KSZ061>065-074>080-084>089-052000-
SOUTHWEST KANSAS

CITY           SKY/WX    TMP DP  RH WIND       PRES   REMARKS
DODGE CITY     CLOUDY    34  17  50 N15       30.29F WCI  24
ELKHART          N/A     40  18  41 N18         N/A  WCI  31
GARDEN CITY    MOSUNNY   37  24  59 N15       30.28F WCI  28
GREAT BEND     MOSUNNY   36  21  55 N9        30.30F
LIBERAL        CLOUDY    36  18  48 N20       30.26S WCI  25
PRATT          CLOUDY    43  18  36 E7        30.28F
$$

KSZ066>073-081>083-090>101-052000-
SOUTHEAST KANSAS

CITY           SKY/WX    TMP DP  RH WIND       PRES   REMARKS
CHANUTE        SUNNY     50  23  34 VRB7      30.34F
COFFEYVILLE    SUNNY     52  24  33 SW13      30.35F
HUTCHINSON     PTSUNNY   43  17  35 SE8       30.30F
MEDICINE LODGE   N/A     45  23  42 E6        30.27F
NEWTON         CLOUDY    43  19  39 S6        30.32F
PARSONS        SUNNY     51  26  37 SW7       30.35F
WICHITA INTL   PTSUNNY   48  22  35 SW7       30.30F
WICHITA JABRA  SUNNY     48  21  34 S8        30.30F
WICHITA MCCONL MOSUNNY   48  22  36 S7        30.30F
WINFIELD       SUNNY     52  25  35 SW9       30.31F
$$

KSZ007>012-019>026-033>040-048>060-102>105-052000-
NORTHEAST KANSAS

CITY           SKY/WX    TMP DP  RH WIND       PRES   REMARKS
CONCORDIA      MOSUNNY   35  24  64 SW12      30.29F WCI  27
EMPORIA        SUNNY     41  23  48 VRB5      30.32F
LAWRENCE       MOSUNNY   37  22  54 VRB3      30.36F
MANHATTAN      CLOUDY    41  24  51 SW9       30.32F
MARYSVILLE     CLOUDY    34  27  75 S8        30.28F
OLATHE IND     SUNNY     38  22  52 VRB5      30.35F
OLATHE EXE     MOSUNNY   38  22  52 S7        30.35F
SALINA         PTSUNNY   43  23  45 SW9       30.32F
TOPEKA BILLARD PTSUNNY   39  22  50 S7        30.35F
TOPEKA FORBES  PTSUNNY   40  23  50 S7        30.33F
$$



USA.gov is the U.S. government's official web portal to all federal, state and local government web resources and services.